Weather in Tekirova

Turkey     36°30′04″N   30°31′33″E
temp.,
°C
wind,
m/s
gust,
m/s
humid.,
%
clouds,
%
prec.,
mm/h
press.,
hPa
HPBL,
m
14 may, fri
fri1400:00+16nnw22744 0.0 101466
03:00+15nnw22785 0.0 101481
06:00+15nnw227073 0.0 101355
09:00+20se21540 0.0 1014559
12:00+23sse43470 0.0 1015988
15:00+24sse43420 0.0 1014987
18:00+22ese21490 0.0 1014481
21:00+17n22710 0.0 101442
15 may, sat
sat1500:00+18n22700 0.0 101448
03:00+17wnw11590 0.0 101338
06:00+17nw11475 0.0 101230
09:00+21se21505 0.0 1013398
12:00+24se42425 0.0 1012852
15:00+25sse43390 0.0 1011979
18:00+23e22452 0.0 1010464
21:00+18n33735 0.0 101081
16 may, sun
sun1600:00+17n3470100 0.0 1009135
03:00+16n3473100 0.0 1008134
06:00+15nnw2269100 0.0 100880
09:00+20e22562 0.0 1009710
12:00+22sse44520 0.0 10081186
15:00+23s55421 0.0 10071277
18:00+21sse32521 0.0 1006805
21:00+17nne348151 0.0 1009243
17 may, mon
mon1700:00+16nne35835 0.0 1009270
03:00+15n23850 0.0 1008101
06:00+15wnw21710 0.0 100945
09:00+21sse22520 0.0 1010623
12:00+23sse43474 0.0 10101350
15:00+25s534420 0.0 10091326
18:00+24sw334192 0.0 1009621
21:00+19n23654 0.0 101166
18 may, tue
tue1800:00+18nnw22674 0.0 101254
03:00+18nw11570 0.0 101129
06:00+19nw22480 0.0 101223
09:00+24se21440 0.0 1013443
12:00+26sse43400 0.0 10121274
15:00+27sse43410 0.0 10121315
18:00+26sse22410 0.0 1011673
21:00+20nnw226189 0.0 101236